Location: Newark
(27.2452°N, 107.0032°W)
Time: 00:34:46
(UTC+00:00)

N. Korean satellite - Visible Passes

Search period start: 16 December 2019 00:00
Search period end: 26 December 2019 00:00
Orbit: 455 x 507 km, 97.2° (Epoch: 14 December)

Date Brightness Start Highest point End Pass type
(mag) Time Alt. Az. Time Alt. Az. Time Alt. Az.
16 Dec 9.8 12:00:39 10° ENE 12:02:18 13° E 12:03:57 10° SE visible
17 Dec 6.6 13:06:57 10° N 13:10:16 48° WNW 13:13:34 10° SSW visible
18 Dec 9.8 01:09:02 10° SW 01:11:36 18° W 01:14:09 10° NW visible
18 Dec 7.0 12:41:28 10° NNE 12:44:52 60° E 12:48:14 10° S visible
19 Dec 8.2 00:42:37 10° S 00:46:07 41° W 00:49:36 10° NNW visible
19 Dec 9.0 12:16:37 10° NE 12:19:23 23° E 12:22:10 10° SSE visible
20 Dec 7.4 13:24:20 10° NNW 13:27:13 26° WNW 13:30:05 10° SW visible
21 Dec 6.3 12:58:27 10° N 13:01:51 68° WNW 13:05:14 10° SSW visible
22 Dec 9.4 01:00:14 10° SSW 01:03:11 23° W 01:06:07 10° NW visible
22 Dec 7.7 12:33:09 10° NNE 12:36:26 43° E 12:39:41 10° S visible
23 Dec 9.5 12:08:34 10° NE 12:10:56 17° E 12:13:17 10° SE visible
24 Dec 7.0 13:15:41 10° N 13:18:48 34° WNW 13:21:56 10° SW visible
25 Dec 10.0 01:18:31 10° SW 01:20:16 13° W 01:22:00 10° WNW visible
25 Dec 6.4 12:50:01 10° NNE 12:53:25 87° E 12:56:50 10° S visible
